Weather History for Cardiff-Wales, United Kingdom

Change the Weather History Date:

Wednesday, January 22, 2014

  Actual Average Record
Temperature  
Mean Temperature 44 °F -  
Max Temperature 48 °F 44 °F 51 °F (2008)
Min Temperature 39 °F 35 °F 28 °F (1999)
Degree Days  
Heating Degree Days 20    
Moisture  
Dew Point 43 °F    
Average Humidity 92    
Maximum Humidity 100    
Minimum Humidity 87    
Precipitation  
Precipitation 0.00 in 0.10 in - ()
Sea Level Pressure  
Sea Level Pressure 29.72 in    
Wind  
Wind Speed 7 mph ()    
Max Wind Speed 14 mph    
Max Gust Speed -    
Visibility 6.2 miles    
Events Rain    
Averages and records for this station are not official NWS values.
T = Trace of Precipitation, MM = Missing Value Source: Averaged Metar Reports

Daily Weather History Graph

Daily Weather History Graph

Search for Another Location

Airport:

Trip Planner

Search our weather history database for the weather conditions in past years. The results will help you decide how hot, cold, wet, or windy it might be!

Date:

Astronomy

Jan. 22, 2014 Rise Set
Actual Time 8:04 AM GMT 4:45 PM GMT
Civil Twilight 7:27 AM GMT 5:22 PM GMT
Nautical Twilight 6:46 AM GMT 6:04 PM GMT
Astronomical Twilight 6:06 AM GMT 6:43 PM GMT
Moon 11:53 PM GMT (1/22) 10:12 AM GMT (1/22)
Length of Visible Light 9h 55m
Length of Day
8h 40m
Waning Gibbous, 67% of the Moon is Illuminated
Jan 22
Waning Gibbous
Jan 24
Last Quarter
Jan 30
New
Feb 6
First Quarter
Feb 14
Full

Hourly Weather History & Observations

Time (GMT) Temp. Windchill Dew Point Humidity Pressure Visibility Wind Dir Wind Speed Gust Speed Precip Events Conditions
12:20 AM 46.4 °F 44.3 °F 44.6 °F 93% 29.59 in 6.2 mi SSW 4.6 mph - N/A   Scattered Clouds
12:50 AM 46.4 °F 45.2 °F 44.6 °F 93% 29.59 in 6.2 mi South 3.5 mph - N/A   Scattered Clouds
1:20 AM 44.6 °F 43.1 °F 44.6 °F 100% 29.59 in 6.2 mi SW 3.5 mph - N/A   Mostly Cloudy
1:50 AM 46.4 °F 45.2 °F 44.6 °F 93% 29.59 in 6.2 mi SW 3.5 mph - N/A   Mostly Cloudy
2:20 AM 46.4 °F 44.3 °F 44.6 °F 93% 29.59 in 6.2 mi SW 4.6 mph - N/A   Mostly Cloudy
2:50 AM 46.4 °F 42.4 °F 44.6 °F 93% 29.59 in 6.2 mi West 8.1 mph - N/A Rain Light Rain
3:20 AM 44.6 °F 40.7 °F 42.8 °F 93% 29.59 in 6.2 mi West 6.9 mph - N/A   Scattered Clouds
3:50 AM 46.4 °F 42.4 °F 44.6 °F 93% 29.59 in 6.2 mi West 8.1 mph - N/A   Scattered Clouds
4:20 AM 44.6 °F 40.7 °F 42.8 °F 93% 29.59 in 6.2 mi West 6.9 mph - N/A   Partly Cloudy
4:50 AM 42.8 °F 38.0 °F 41.0 °F 93% 29.59 in 6.2 mi West 8.1 mph - N/A   Mostly Cloudy
5:20 AM 42.8 °F 39.3 °F 41.0 °F 93% 29.59 in 6.2 mi West 5.8 mph - N/A   Mostly Cloudy
5:50 AM 42.8 °F 38.6 °F 41.0 °F 93% 29.59 in 5.6 mi WSW 6.9 mph - N/A   Mostly Cloudy
6:20 AM 42.8 °F 40.1 °F 42.8 °F 100% 29.62 in 5.6 mi SSW 4.6 mph - N/A   Scattered Clouds
6:50 AM 42.8 °F 40.1 °F 41.0 °F 93% 29.62 in 5.6 mi SSW 4.6 mph - N/A   Mostly Cloudy
7:20 AM 42.8 °F 40.1 °F 41.0 °F 93% 29.62 in 6.2 mi SSW 4.6 mph - N/A   Scattered Clouds
7:50 AM 42.8 °F 39.3 °F 42.8 °F 100% 29.62 in 6.2 mi WSW 5.8 mph - N/A   Scattered Clouds
8:20 AM 44.6 °F 41.4 °F 42.8 °F 93% 29.65 in 6.2 mi SSW 5.8 mph - N/A   Scattered Clouds
8:50 AM 46.4 °F 43.5 °F 44.6 °F 93% 29.65 in 6.2 mi WSW 5.8 mph - N/A   Scattered Clouds
9:20 AM 46.4 °F 42.9 °F 44.6 °F 93% 29.65 in 6.2 mi WSW 6.9 mph - N/A Rain Light Rain
9:50 AM 46.4 °F 41.1 °F 44.6 °F 93% 29.65 in 6.2 mi West 11.5 mph - N/A   Scattered Clouds
10:20 AM 46.4 °F 41.9 °F 44.6 °F 93% 29.68 in 6.2 mi West 9.2 mph - N/A Rain Rain Showers
10:50 AM 48.2 °F - 46.4 °F 93% 29.68 in 6.2 mi West 10.4 mph - N/A Rain Rain Showers
11:20 AM 48.2 °F - 46.4 °F 93% 29.71 in 6.2 mi West 9.2 mph - N/A   Scattered Clouds
11:50 AM 48.2 °F - 44.6 °F 87% 29.71 in 6.2 mi West 12.7 mph - N/A   Scattered Clouds
12:20 PM 48.2 °F - 44.6 °F 87% 29.71 in 6.2 mi West 11.5 mph - N/A   Scattered Clouds
12:50 PM 48.2 °F - 44.6 °F 87% 29.71 in 6.2 mi West 11.5 mph - N/A   Scattered Clouds
1:20 PM 48.2 °F - 44.6 °F 87% 29.71 in 6.2 mi West 13.8 mph - N/A   Mostly Cloudy
1:50 PM 48.2 °F - 44.6 °F 87% 29.71 in 6.2 mi West 11.5 mph - N/A   Scattered Clouds
2:20 PM 48.2 °F - 44.6 °F 87% 29.71 in 6.2 mi West 11.5 mph - N/A   Mostly Cloudy
2:50 PM 48.2 °F - 44.6 °F 87% 29.74 in 6.2 mi West 11.5 mph - N/A   Partly Cloudy
3:20 PM 46.4 °F 41.1 °F 44.6 °F 93% 29.74 in 6.2 mi West 11.5 mph - N/A   Partly Cloudy
3:50 PM 46.4 °F 41.5 °F 42.8 °F 87% 29.77 in 6.2 mi West 10.4 mph - N/A   Partly Cloudy
4:20 PM 46.4 °F 41.5 °F 42.8 °F 87% 29.77 in 6.2 mi West 10.4 mph - N/A   Partly Cloudy
4:50 PM 44.6 °F 38.8 °F 42.8 °F 93% 29.80 in 6.2 mi West 11.5 mph - N/A   Partly Cloudy
5:20 PM 44.6 °F 39.2 °F 42.8 °F 93% 29.80 in 6.2 mi West 10.4 mph - N/A   Partly Cloudy
5:50 PM 44.6 °F 38.8 °F 41.0 °F 87% 29.80 in 6.2 mi WNW 11.5 mph - N/A   Partly Cloudy
6:20 PM 42.8 °F 36.6 °F 41.0 °F 93% 29.83 in 6.2 mi WNW 11.5 mph - N/A   Partly Cloudy
6:50 PM 42.8 °F 37.5 °F 41.0 °F 93% 29.83 in 6.2 mi WNW 9.2 mph - N/A   Partly Cloudy
7:20 PM 44.6 °F 40.7 °F 42.8 °F 93% 29.86 in 6.2 mi WNW 6.9 mph - N/A   Scattered Clouds
7:50 PM 44.6 °F 39.7 °F 42.8 °F 93% 29.86 in 6.2 mi WNW 9.2 mph - N/A   Scattered Clouds
8:20 PM 44.6 °F 39.7 °F 42.8 °F 93% 29.86 in 6.2 mi WNW 9.2 mph - N/A   Scattered Clouds
8:50 PM 44.6 °F 40.2 °F 42.8 °F 93% 29.89 in 6.2 mi WNW 8.1 mph - N/A   Mostly Cloudy
9:20 PM 42.8 °F 37.5 °F 41.0 °F 93% 29.89 in 6.2 mi WNW 9.2 mph - N/A   Partly Cloudy
9:50 PM 42.8 °F 37.5 °F 39.2 °F 87% 29.89 in 6.2 mi WNW 9.2 mph - N/A   Unknown
10:20 PM 41.0 °F 35.8 °F 39.2 °F 93% 29.89 in 6.2 mi WNW 8.1 mph - N/A   Partly Cloudy
10:50 PM 41.0 °F 35.2 °F 39.2 °F 93% 29.89 in - WNW 9.2 mph - N/A   Clear
11:20 PM 41.0 °F 36.4 °F 37.4 °F 87% 29.89 in - WNW 6.9 mph - N/A   Clear
11:50 PM 39.2 °F 33.6 °F 37.4 °F 93% 29.92 in 6.2 mi West 8.1 mph - N/A   Unknown